TimeEDT,TemperatureF,Dew PointF,Humidity,Sea Level PressureIn,VisibilityMPH,Wind Direction,Wind SpeedMPH,Gust SpeedMPH,PrecipitationIn,Events,Conditions,WindDirDegrees,DateUTC
12:15 AM,24.8,14.4,65,30.03,10.0,WSW,5.8,-,N/A,,Clear,240,2013-03-22 04:15:00
12:35 AM,24.6,14.0,64,30.02,10.0,WSW,5.8,-,N/A,,Clear,250,2013-03-22 04:35:00
12:55 AM,24.8,14.0,64,30.02,10.0,West,4.6,-,N/A,,Clear,260,2013-03-22 04:55:00
1:15 AM,25.5,14.7,64,30.02,10.0,West,4.6,-,N/A,,Clear,260,2013-03-22 05:15:00
1:35 AM,25.0,13.5,62,30.02,10.0,West,4.6,-,N/A,,Clear,260,2013-03-22 05:35:00
1:55 AM,24.3,13.5,63,30.02,10.0,West,4.6,-,N/A,,Clear,270,2013-03-22 05:55:00
2:15 AM,25.2,13.8,62,30.02,10.0,West,3.5,-,N/A,,Clear,280,2013-03-22 06:15:00
2:35 AM,24.8,14.0,64,30.03,10.0,West,3.5,-,N/A,,Clear,280,2013-03-22 06:35:00
2:55 AM,24.1,14.4,66,30.03,10.0,Calm,Calm,-,N/A,,Clear,0,2013-03-22 06:55:00
3:15 AM,23.2,14.0,68,30.03,10.0,West,3.5,-,N/A,,Clear,280,2013-03-22 07:15:00
3:35 AM,23.4,14.4,68,30.03,10.0,Calm,Calm,-,N/A,,Clear,0,2013-03-22 07:35:00
3:55 AM,22.3,14.5,72,30.03,10.0,Calm,Calm,-,N/A,,Clear,0,2013-03-22 07:55:00
4:15 AM,22.5,14.4,71,30.03,10.0,NW,3.5,-,N/A,,Clear,320,2013-03-22 08:15:00
4:35 AM,23.2,14.7,70,30.02,10.0,NW,4.6,-,N/A,,Clear,310,2013-03-22 08:35:00
4:55 AM,21.4,13.1,70,30.02,10.0,NW,3.5,-,N/A,,Clear,310,2013-03-22 08:55:00
5:15 AM,20.7,13.8,75,30.03,10.0,Calm,Calm,-,N/A,,Clear,0,2013-03-22 09:15:00
5:35 AM,21.2,14.7,76,30.03,10.0,Calm,Calm,-,N/A,,Clear,0,2013-03-22 09:35:00
5:55 AM,21.0,14.5,76,30.03,10.0,Calm,Calm,-,N/A,,Clear,0,2013-03-22 09:55:00
6:15 AM,19.9,14.4,79,30.03,10.0,Calm,Calm,-,N/A,,Clear,0,2013-03-22 10:15:00
6:35 AM,18.5,13.8,82,30.04,10.0,Calm,Calm,-,N/A,,Clear,0,2013-03-22 10:35:00
6:55 AM,19.2,14.9,83,30.04,10.0,Calm,Calm,-,N/A,,Clear,0,2013-03-22 10:55:00
7:15 AM,19.2,14.9,83,30.05,10.0,Calm,Calm,-,N/A,,Clear,0,2013-03-22 11:15:00
7:55 AM,19.2,14.5,82,30.05,10.0,Calm,Calm,-,N/A,,Clear,0,2013-03-22 11:55:00
8:15 AM,19.8,15.4,83,30.06,10.0,Calm,Calm,-,N/A,,Clear,0,2013-03-22 12:15:00
8:35 AM,21.2,16.3,82,30.06,10.0,Calm,Calm,-,N/A,,Clear,0,2013-03-22 12:35:00
8:55 AM,23.4,18.0,80,30.06,10.0,Calm,Calm,-,N/A,,Clear,0,2013-03-22 12:55:00
9:15 AM,25.3,17.4,72,30.05,10.0,Calm,Calm,-,N/A,,Clear,0,2013-03-22 13:15:00
9:35 AM,27.3,17.8,67,30.05,10.0,Calm,Calm,-,N/A,,Clear,0,2013-03-22 13:35:00
9:55 AM,29.1,18.1,64,30.05,10.0,Calm,Calm,-,N/A,,Clear,0,2013-03-22 13:55:00
10:15 AM,30.4,16.7,57,30.05,10.0,Calm,Calm,-,N/A,,Clear,0,2013-03-22 14:15:00
10:35 AM,31.8,16.2,52,30.05,10.0,WSW,4.6,-,N/A,,Clear,250,2013-03-22 14:35:00
10:55 AM,32.0,14.7,49,30.06,10.0,WSW,3.5,-,N/A,,Clear,240,2013-03-22 14:55:00
11:15 AM,33.4,15.6,48,30.06,10.0,West,6.9,-,N/A,,Clear,270,2013-03-22 15:15:00
11:35 AM,33.6,14.5,46,30.06,10.0,West,6.9,-,N/A,,Clear,270,2013-03-22 15:35:00
11:55 AM,34.0,13.1,42,30.06,10.0,WSW,4.6,-,N/A,,Clear,250,2013-03-22 15:55:00
12:15 PM,34.2,13.5,43,30.06,10.0,WSW,3.5,-,N/A,,Clear,240,2013-03-22 16:15:00
12:35 PM,36.0,14.7,42,30.06,10.0,West,6.9,-,N/A,,Clear,270,2013-03-22 16:35:00
12:55 PM,35.8,12.6,38,30.06,10.0,West,10.4,-,N/A,,Clear,270,2013-03-22 16:55:00
1:15 PM,37.4,13.5,38,30.05,10.0,West,5.8,-,N/A,,Clear,260,2013-03-22 17:15:00
1:35 PM,37.4,12.6,36,30.05,10.0,WSW,4.6,-,N/A,,Clear,240,2013-03-22 17:35:00
1:55 PM,37.4,13.6,38,30.04,10.0,Calm,Calm,-,N/A,,Clear,0,2013-03-22 17:55:00
2:15 PM,38.5,15.1,39,30.03,10.0,WSW,10.4,16.1,N/A,,Clear,250,2013-03-22 18:15:00
2:35 PM,39.7,15.6,38,30.03,10.0,West,8.1,-,N/A,,Clear,260,2013-03-22 18:35:00
2:55 PM,38.8,13.8,36,30.02,10.0,Calm,Calm,-,N/A,,Clear,0,2013-03-22 18:55:00
3:15 PM,39.0,14.5,37,30.02,10.0,West,5.8,-,N/A,,Clear,270,2013-03-22 19:15:00
3:35 PM,39.7,13.3,34,30.00,10.0,Calm,Calm,-,N/A,,Clear,0,2013-03-22 19:35:00
3:55 PM,41.0,14.0,33,30.00,10.0,West,6.9,-,N/A,,Clear,260,2013-03-22 19:55:00
4:15 PM,39.7,9.9,29,29.99,10.0,Calm,Calm,-,N/A,,Clear,0,2013-03-22 20:15:00
4:35 PM,41.4,13.5,32,29.99,10.0,West,5.8,-,N/A,,Clear,270,2013-03-22 20:35:00
4:55 PM,41.4,11.7,30,29.99,10.0,West,6.9,-,N/A,,Clear,280,2013-03-22 20:55:00
5:15 PM,41.0,11.7,30,29.99,10.0,WSW,4.6,-,N/A,,Clear,250,2013-03-22 21:15:00
5:35 PM,41.7,10.2,28,29.99,10.0,Calm,Calm,-,N/A,,Clear,0,2013-03-22 21:35:00
5:55 PM,41.5,10.9,29,29.99,10.0,West,4.6,-,N/A,,Clear,280,2013-03-22 21:55:00
6:15 PM,41.4,13.1,32,29.99,10.0,WNW,3.5,-,N/A,,Clear,290,2013-03-22 22:15:00
6:35 PM,41.4,11.7,30,29.99,10.0,West,5.8,-,N/A,,Clear,270,2013-03-22 22:35:00
6:55 PM,41.0,14.4,34,30.00,10.0,West,4.6,-,N/A,,Clear,280,2013-03-22 22:55:00
7:15 PM,40.5,12.7,32,30.01,10.0,West,5.8,-,N/A,,Clear,280,2013-03-22 23:15:00
7:35 PM,38.8,13.8,36,30.01,10.0,West,4.6,-,N/A,,Clear,280,2013-03-22 23:35:00
7:55 PM,37.2,14.4,39,30.02,10.0,Calm,Calm,-,N/A,,Clear,0,2013-03-22 23:55:00
8:15 PM,35.8,18.1,49,30.02,10.0,Calm,Calm,-,N/A,,Clear,0,2013-03-23 00:15:00
8:35 PM,33.3,18.9,56,30.02,10.0,Calm,Calm,-,N/A,,Clear,0,2013-03-23 00:35:00
8:55 PM,32.0,18.5,58,30.02,10.0,Calm,Calm,-,N/A,,Clear,0,2013-03-23 00:55:00
9:15 PM,31.1,19.9,63,30.01,10.0,NNE,3.5,-,N/A,,Clear,30,2013-03-23 01:15:00
9:35 PM,30.2,19.4,64,30.02,10.0,Calm,Calm,-,N/A,,Clear,0,2013-03-23 01:35:00
9:55 PM,30.6,19.4,63,30.02,10.0,Calm,Calm,-,N/A,,Clear,0,2013-03-23 01:55:00
10:15 PM,31.3,18.9,60,30.03,10.0,Calm,Calm,-,N/A,,Clear,0,2013-03-23 02:15:00
10:35 PM,29.7,21.6,72,30.03,10.0,Calm,Calm,-,N/A,,Clear,0,2013-03-23 02:35:00
10:55 PM,29.3,20.3,69,30.03,10.0,NNW,3.5,-,N/A,,Clear,340,2013-03-23 02:55:00
11:15 PM,29.3,17.8,62,30.03,10.0,Calm,Calm,-,N/A,,Clear,0,2013-03-23 03:15:00
11:35 PM,29.7,21.2,71,30.03,10.0,Calm,Calm,-,N/A,,Clear,0,2013-03-23 03:35:00
11:55 PM,29.5,22.8,76,30.03,10.0,Calm,Calm,-,N/A,,Clear,0,2013-03-23 03:55:00